Wind_Speed
37 37 36 35 33 30 29 27 26 26 26 26 25 24 23 22 22 22 21 20 20 20 20 20 20 20 20 19 18 18 18 19 19 18 19 19 18 18 17 17 16 14
37 37 36 34 32 30 28 27 26 26 26 25 25 23 22 22 22 22 21 20 20 20 20 20 20 20 19 18 18 18 18 18 18 18 19 19 18 17 16 16 14 13
37 37 36 34 32 30 28 26 26 25 25 25 25 23 23 23 23 22 21 21 20 20 21 21 20 20 18 18 17 17 18 18 18 18 18 18 18 17 16 15 14 13
38 37 36 34 32 29 27 26 26 26 26 25 24 22 22 23 23 23 22 21 20 21 21 21 20 19 18 18 18 18 18 18 18 19 19 18 18 17 16 15 14 14
37 36 35 34 32 29 28 28 27 26 26 25 23 21 21 22 23 23 22 21 21 21 21 21 20 19 18 19 20 19 19 19 19 19 19 18 17 16 16 15 14 14
37 35 34 34 32 30 29 28 27 26 26 25 23 21 20 21 22 22 22 22 21 21 21 22 21 20 19 20 20 21 20 19 19 19 18 17 16 16 15 15 14 14
37 35 34 33 31 29 28 28 28 27 26 25 24 22 21 22 22 22 22 22 21 21 21 22 22 21 20 21 21 21 21 20 19 19 18 16 16 15 15 15 14 14
37 35 33 32 31 29 28 29 29 27 26 26 25 23 22 22 22 22 22 21 20 20 20 21 21 21 21 22 22 21 21 20 19 18 17 16 16 16 16 16 15 14
37 35 34 32 31 30 29 30 30 28 27 27 25 24 23 22 22 21 21 20 19 19 19 19 19 20 21 22 22 21 20 20 19 18 17 16 16 16 16 16 15 15
37 35 34 33 32 30 29 30 30 29 28 27 25 24 24 23 22 21 20 20 19 18 17 17 17 19 20 21 21 20 19 19 18 17 17 16 16 16 16 15 15 15
38 36 35 34 32 30 31 32 31 29 28 27 26 25 24 23 22 21 21 20 18 17 16 16 17 18 19 20 20 20 19 18 17 16 16 16 16 15 15 14 14 14
39 37 36 35 32 31 33 34 31 29 28 28 27 26 25 24 23 22 22 19 17 16 16 16 16 17 18 19 20 19 19 18 17 16 16 16 16 15 15 14 14 14
40 38 37 35 33 33 34 33 31 29 29 28 28 26 25 24 23 23 21 18 17 16 16 16 16 16 18 19 19 18 18 18 17 17 17 17 16 16 15 15 15 15
41 39 36 34 33 33 33 33 31 30 29 29 28 26 24 24 23 22 20 19 18 18 17 16 16 17 19 20 19 18 18 18 18 18 17 17 17 17 16 16 16 16
41 38 35 33 33 34 33 33 33 30 29 29 28 25 24 24 24 22 21 20 19 19 18 17 16 19 20 19 18 18 18 18 18 18 18 18 18 18 17 16 16 16
40 39 36 34 36 37 33 33 34 31 29 29 27 24 24 25 24 23 22 21 20 19 19 17 18 20 19 18 17 17 18 18 18 18 18 18 18 17 17 17 16 16
40 39 37 36 38 37 33 33 33 31 30 31 26 23 24 26 25 24 23 22 20 19 18 18 19 20 19 18 18 17 18 18 18 18 18 18 17 17 17 17 16 15
41 40 39 38 38 37 34 32 33 34 35 32 26 24 26 27 26 26 24 22 21 19 18 18 19 19 19 18 18 18 18 17 18 18 18 17 17 17 17 16 15 14
41 40 40 39 37 37 35 32 35 39 37 30 26 26 28 28 28 27 25 23 21 19 17 18 19 20 19 18 18 18 18 18 18 17 17 17 17 16 16 16 16 15
41 40 41 40 37 36 35 36 38 39 34 28 28 29 30 30 29 27 25 24 21 18 17 18 19 20 19 19 19 18 18 18 18 17 18 18 17 16 17 17 16 15
40 40 42 42 37 35 37 40 38 34 32 31 31 32 32 31 28 26 26 24 20 18 17 18 20 21 20 19 19 18 18 18 18 18 19 18 17 17 17 17 15 14
41 42 43 43 39 35 38 40 37 33 33 33 33 35 34 31 27 27 26 22 19 18 18 18 20 20 20 19 18 17 18 18 19 19 20 19 18 17 17 17 16 16
43 43 43 42 39 35 38 42 39 34 33 34 35 37 36 31 28 27 25 21 19 19 18 18 20 21 20 19 18 17 18 19 20 20 20 19 18 18 17 17 17 18
44 43 41 40 38 37 38 40 39 35 35 36 38 39 37 31 26 26 24 21 20 19 18 18 19 20 20 19 18 17 18 18 19 20 20 19 19 18 18 18 19 20
44 43 40 39 39 39 37 37 39 39 37 38 40 40 35 28 24 25 24 21 19 18 18 19 19 19 18 18 18 18 18 18 18 19 20 19 19 19 19 19 20 20
43 42 40 38 38 39 39 39 42 42 39 40 42 38 31 25 25 26 25 21 19 19 20 19 18 18 18 18 17 18 18 17 18 19 20 19 18 19 19 20 21 21
Wind_Direction
227 227 226 226 227 229 231 235 239 241 241 241 242 245 247 245 243 241 242 243 245 247 250 252 255 259 261 259 255 249 245 242 239 239 241 244 246 248 250 251 252 253
226 227 226 226 227 228 231 235 239 242 242 242 244 246 246 245 243 243 244 245 247 248 250 253 255 259 259 252 246 242 240 239 239 240 243 246 248 250 250 250 249 249
226 226 225 225 227 228 229 232 237 241 241 240 243 245 244 242 242 243 244 247 249 249 250 250 253 257 253 242 239 238 238 239 241 243 246 248 249 250 250 249 248 247
225 225 225 226 227 228 229 232 235 237 237 237 239 242 242 240 239 241 243 247 248 249 248 246 250 254 245 235 235 236 235 237 239 241 245 247 247 247 246 247 246 244
224 225 224 226 227 228 229 231 234 237 237 237 238 239 240 239 239 240 243 247 248 248 246 244 248 250 242 234 234 234 233 234 236 239 241 242 243 243 242 242 242 240
224 224 224 225 225 227 229 231 234 237 239 239 239 240 240 239 239 241 244 248 249 248 245 244 247 249 242 235 232 232 233 233 235 238 238 237 237 236 236 235 235 234
223 223 223 224 225 226 229 233 236 237 238 239 240 241 242 239 239 241 244 247 248 247 247 247 249 249 243 236 232 231 232 232 234 236 236 233 230 230 231 230 229 230
223 222 223 223 224 225 228 233 237 237 236 237 238 239 240 240 240 240 242 245 245 246 249 250 250 247 242 237 233 231 231 231 232 232 231 229 227 227 229 229 228 228
222 223 223 223 224 225 227 231 235 235 234 236 237 236 237 239 239 239 239 241 243 246 251 252 251 247 242 236 232 230 230 231 232 231 228 227 228 228 229 231 231 230
222 223 224 224 224 224 226 231 233 232 232 234 235 234 234 237 238 235 234 237 242 248 252 255 255 251 243 235 229 228 229 230 231 230 226 225 228 231 232 234 234 233
222 223 225 224 224 226 228 229 230 231 232 234 235 233 232 235 236 232 231 236 243 250 257 263 262 255 243 232 225 224 225 227 228 228 227 226 226 229 234 236 236 236
222 223 224 224 226 228 227 225 227 230 231 233 236 234 232 232 232 231 232 238 246 255 263 268 265 253 238 227 222 222 222 224 224 225 227 227 226 227 231 234 235 234
222 222 224 224 225 227 226 224 227 230 229 232 237 236 232 230 229 230 233 239 248 257 265 269 262 246 230 222 220 220 222 223 222 222 224 226 226 226 228 230 231 233
222 223 224 224 223 226 228 226 226 229 230 234 240 236 230 228 228 231 235 240 249 258 264 265 253 234 223 218 217 218 221 223 222 221 223 224 224 224 226 228 228 231
222 223 224 223 223 225 227 226 225 227 230 236 240 234 227 227 228 232 237 241 249 257 261 258 242 225 218 217 217 218 221 222 223 223 223 224 225 225 226 227 229 230
221 222 221 222 224 224 225 224 222 224 230 236 237 232 227 227 228 231 236 241 247 254 257 251 234 221 216 216 218 221 222 223 223 224 224 225 227 229 229 228 228 229
219 221 221 222 223 223 224 221 220 225 231 232 232 230 227 227 228 231 236 239 245 252 254 247 232 220 215 215 218 220 222 224 225 225 225 226 227 230 232 231 228 226
219 220 220 220 222 224 222 219 222 228 227 225 228 228 226 226 228 231 235 237 242 248 249 242 232 221 215 214 217 220 221 223 226 227 227 228 228 229 231 232 231 227
218 219 218 219 222 223 220 222 227 226 220 221 229 228 224 226 228 230 232 234 240 246 245 238 229 219 215 214 216 219 221 222 224 226 228 229 229 229 229 232 232 228
216 218 220 220 220 220 222 226 226 221 217 225 232 227 223 224 226 228 230 233 239 245 242 234 226 218 213 214 216 217 220 222 223 225 227 229 229 229 230 233 235 232
217 220 220 219 217 220 225 224 220 220 225 232 232 226 222 223 225 228 230 233 241 244 239 231 223 216 212 213 215 217 218 221 223 225 226 229 232 233 234 236 236 234
219 219 218 217 216 220 223 220 216 221 229 232 230 225 221 220 226 230 231 236 242 242 238 232 222 216 213 213 214 215 218 220 223 225 225 228 232 233 232 234 236 235
219 217 217 217 217 220 223 219 216 220 228 231 228 222 217 218 226 229 231 238 244 243 239 233 224 216 212 213 214 214 217 221 223 224 225 228 230 230 229 232 237 239
218 217 217 219 221 223 224 221 220 223 229 231 227 221 216 218 225 229 231 240 245 244 243 238 227 217 213 214 216 217 220 223 225 227 228 230 231 231 232 235 238 239
219 218 219 222 224 225 223 224 225 226 229 231 226 220 216 217 222 225 231 240 244 244 244 239 228 219 216 218 219 221 224 225 228 231 233 235 236 235 237 239 237 236
221 221 222 224 227 226 224 225 226 224 226 227 222 216 216 222 225 225 229 237 242 243 240 234 228 223 220 221 224 227 229 229 231 234 236 240 244 242 240 240 238 235
Height
1500 1502 1505 1508 1511 1513 1516 1518 1520 1521 1523 1524 1525 1526 1528 1530 1531 1532 1534 1534 1535 1536 1536 1537 1538 1538 1539 1539 1540 1540 1541 1542 1543 1544 1544 1545 1546 1546 1547 1548 1549 1549
1497 1500 1503 1506 1508 1511 1514 1516 1518 1519 1521 1522 1524 1525 1526 1528 1529 1530 1532 1533 1534 1535 1535 1536 1536 1537 1537 1538 1538 1539 1540 1541 1541 1542 1543 1544 1544 1545 1546 1547 1547 1548
1495 1497 1500 1503 1506 1509 1512 1514 1516 1517 1519 1521 1522 1524 1525 1526 1528 1529 1530 1531 1532 1533 1534 1535 1535 1536 1536 1537 1537 1538 1538 1539 1540 1541 1542 1542 1543 1544 1545 1546 1546 1547
1492 1495 1498 1501 1504 1507 1510 1512 1514 1515 1517 1519 1520 1522 1523 1524 1526 1527 1528 1530 1531 1532 1532 1533 1534 1534 1535 1535 1536 1537 1537 1538 1539 1540 1540 1541 1542 1543 1544 1544 1545 1546
1490 1493 1496 1499 1502 1505 1507 1509 1511 1513 1515 1517 1518 1520 1521 1522 1524 1525 1526 1528 1529 1530 1531 1532 1532 1533 1534 1534 1535 1536 1536 1537 1537 1538 1539 1540 1541 1542 1543 1544 1544 1545
1488 1491 1494 1497 1500 1503 1505 1507 1509 1511 1513 1515 1516 1518 1519 1521 1522 1523 1525 1526 1527 1528 1529 1530 1531 1531 1532 1533 1534 1534 1535 1536 1536 1537 1538 1539 1540 1541 1542 1543 1543 1544
1485 1489 1492 1495 1498 1500 1503 1505 1507 1509 1511 1513 1515 1516 1517 1519 1520 1521 1523 1524 1525 1526 1527 1528 1529 1530 1531 1531 1532 1533 1533 1534 1535 1536 1537 1538 1539 1540 1541 1542 1542 1543
1483 1486 1490 1493 1496 1498 1500 1503 1505 1507 1509 1511 1512 1514 1515 1517 1518 1520 1521 1522 1523 1524 1525 1526 1527 1528 1529 1529 1530 1531 1532 1533 1534 1535 1536 1537 1538 1539 1540 1541 1541 1542
1481 1484 1487 1490 1493 1495 1498 1500 1502 1505 1507 1509 1510 1512 1513 1515 1516 1518 1519 1520 1522 1523 1523 1524 1524 1525 1526 1527 1529 1530 1530 1531 1533 1534 1535 1536 1537 1538 1539 1540 1540 1541
1478 1482 1485 1488 1490 1493 1496 1498 1500 1502 1505 1506 1508 1510 1511 1513 1514 1516 1517 1518 1520 1520 1521 1522 1522 1523 1524 1525 1527 1528 1529 1530 1531 1533 1534 1535 1536 1537 1538 1539 1540 1541
1475 1479 1482 1485 1488 1491 1493 1496 1498 1500 1502 1504 1506 1508 1509 1511 1512 1514 1515 1516 1518 1518 1519 1520 1520 1520 1521 1523 1525 1526 1527 1529 1530 1532 1533 1534 1536 1537 1538 1539 1539 1540
1473 1476 1479 1482 1485 1489 1491 1494 1496 1498 1500 1502 1503 1505 1507 1509 1510 1512 1513 1515 1516 1516 1517 1518 1518 1519 1520 1521 1523 1525 1526 1527 1529 1530 1532 1533 1535 1536 1537 1538 1539 1539
1470 1473 1476 1480 1483 1486 1489 1492 1494 1496 1498 1500 1501 1503 1505 1507 1508 1510 1511 1513 1514 1514 1515 1516 1516 1517 1518 1520 1522 1523 1525 1526 1528 1529 1531 1532 1534 1535 1536 1537 1538 1539
1468 1471 1475 1478 1482 1485 1487 1490 1492 1494 1496 1498 1500 1501 1503 1505 1506 1508 1509 1511 1512 1513 1513 1514 1515 1515 1517 1518 1520 1522 1523 1525 1526 1528 1530 1531 1533 1534 1535 1536 1537 1538
1466 1469 1473 1476 1479 1482 1484 1487 1490 1492 1494 1496 1497 1499 1501 1503 1505 1506 1507 1509 1510 1511 1511 1512 1513 1514 1515 1517 1519 1520 1522 1523 1525 1527 1529 1530 1532 1533 1534 1535 1537 1538
1464 1467 1470 1473 1476 1478 1481 1484 1487 1489 1491 1493 1495 1497 1499 1501 1503 1504 1505 1507 1508 1508 1509 1510 1511 1512 1514 1516 1518 1519 1521 1522 1524 1526 1527 1529 1531 1532 1533 1535 1536 1537
1461 1465 1468 1470 1473 1475 1478 1481 1484 1487 1489 1491 1493 1495 1497 1499 1500 1502 1503 1504 1505 1506 1507 1508 1509 1511 1512 1514 1516 1517 1519 1521 1523 1524 1526 1528 1529 1531 1532 1533 1534 1535
1458 1462 1464 1467 1469 1472 1475 1479 1482 1484 1485 1488 1490 1493 1495 1496 1498 1500 1501 1502 1503 1504 1505 1506 1507 1509 1511 1512 1514 1516 1518 1519 1521 1523 1525 1527 1528 1529 1531 1532 1533 1534
1455 1459 1461 1463 1466 1469 1473 1476 1478 1480 1482 1485 1487 1490 1493 1494 1496 1497 1499 1500 1501 1501 1502 1504 1505 1507 1509 1510 1512 1514 1516 1518 1520 1522 1523 1525 1526 1528 1529 1530 1531 1532
1452 1455 1458 1460 1463 1467 1470 1471 1474 1476 1479 1482 1485 1488 1490 1491 1493 1495 1496 1497 1498 1499 1500 1501 1503 1505 1506 1508 1510 1512 1514 1516 1518 1520 1521 1523 1525 1526 1527 1529 1530 1531
1448 1452 1454 1457 1460 1463 1466 1467 1470 1474 1477 1479 1482 1485 1486 1488 1490 1492 1493 1495 1496 1497 1497 1499 1500 1502 1503 1505 1507 1509 1511 1513 1516 1518 1519 1521 1524 1525 1526 1528 1529 1530
1444 1447 1450 1453 1456 1459 1462 1464 1467 1471 1474 1477 1479 1481 1484 1486 1488 1490 1491 1493 1494 1494 1495 1496 1498 1500 1501 1503 1505 1507 1509 1511 1513 1515 1517 1519 1521 1523 1524 1526 1527 1528
1441 1444 1447 1451 1454 1456 1459 1461 1464 1467 1471 1473 1476 1478 1481 1483 1486 1488 1490 1491 1492 1492 1493 1494 1495 1497 1499 1501 1503 1505 1507 1509 1511 1512 1515 1517 1519 1520 1521 1523 1525 1526
1438 1441 1445 1449 1452 1454 1456 1459 1462 1465 1468 1471 1473 1475 1477 1480 1484 1486 1488 1489 1490 1490 1491 1492 1494 1495 1497 1499 1502 1504 1505 1507 1509 1511 1513 1515 1516 1518 1519 1521 1522 1524
1437 1440 1443 1447 1450 1452 1454 1458 1460 1463 1466 1468 1470 1472 1474 1478 1481 1484 1486 1487 1488 1488 1489 1491 1493 1495 1496 1498 1500 1502 1503 1505 1507 1509 1510 1512 1514 1516 1517 1518 1520 1521
1435 1438 1442 1445 1448 1450 1452 1455 1457 1460 1463 1465 1467 1471 1475 1478 1480 1482 1484 1485 1486 1487 1488 1490 1493 1494 1495 1496 1498 1500 1502 1504 1505 1507 1508 1510 1512 1513 1515 1516 1517 1518